Location: Altenhof
(50.2418°N, 10.8789°E)
Time: 19:54:40
(UTC+00:00)

Cosmos 2322 Rocket - Pass Details

Date: 18 February 2020
Orbit: 832 x 851 km, 71.0° (Epoch: 05 April)

Event Time Altitude Azimuth Distance (km) Brightness Sun altitude
Exits shadow 03:42:03 11° 337° (NNW) 2,438 4.5 -26.3°
Maximum altitude 03:42:33 11° 342° (NNW) 2,430 4.5 -26.2°
Drops below altitude 10° 03:43:58 10° 356° (N) 2,490 4.7 -26.0°
Sets 03:48:50 0° 33° (NNE) 3,428 6.0 -25.2°
